This is the latest recevied weather packets stored in our database for station/object KA1ROH. If no packets are shown the sender has not sent any weather packets the latest 10 day(s).
| Time | Temp. | Humidity | Pressure | Rain* | Wind** | Luminosity | Snow |
|---|---|---|---|---|---|---|---|
| 1777917285 | 16.11° C | 56% | 1005.1 hPa | 0 mm | - | - | - |
| 1777911216 | 12.78° C | 71% | 1006.1 hPa | 0 mm | - | - | - |
| 1777908150 | 8.89° C | 90% | 1006.8 hPa | 0.51 mm | - | - | - |
| 1777899740 | 10.56° C | 69% | 1005.8 hPa | 0 mm | - | - | - |
| 1777895504 | 10° C | 75% | 1005.4 hPa | 0 mm | - | - | - |
| 1777893702 | 9.44° C | 78% | 1005.8 hPa | 0 mm | - | - | - |
| 1777891238 | 8.89° C | 81% | 1006.1 hPa | 0 mm | - | - | - |
| 1777890036 | 8.33° C | 82% | 1006.1 hPa | 0 mm | - | - | - |
| 1777888835 | 8.33° C | 81% | 1006.1 hPa | 0 mm | - | - | - |
| 1777888235 | 8.33° C | 81% | 1006.1 hPa | 0 mm | - | - | - |
| 1777884537 | 8.89° C | 76% | 1006.4 hPa | 0 mm | - | - | - |
| 1777880778 | 7.78° C | 71% | 1007.1 hPa | 0 mm | - | - | - |
| 1777872306 | 7.78° C | 59% | 1007.1 hPa | 0 mm | - | - | - |
| 1777868102 | 6.67° C | 64% | 1007.8 hPa | 0 mm | - | - | - |
| 1777866299 | 5° C | 70% | 1007.8 hPa | 0 mm | - | - | - |
| 1777852868 | 10° C | 55% | 1007.5 hPa | 0 mm | - | - | - |
| 1777849864 | 13.33° C | 40% | 1007.5 hPa | 0 mm | - | - | - |
| 1777844426 | 11.11° C | 47% | 1007.5 hPa | 0 mm | - | - | - |
| 1777840698 | 10.56° C | 49% | 1007.5 hPa | 0 mm | - | - | - |
| 1777836431 | 10° C | 53% | 1008.1 hPa | 0 mm | - | - | - |
| 1777831564 | 8.89° C | 54% | 1008.8 hPa | 0 mm | - | - | - |
| 1777830964 | 9.44° C | 54% | 1008.8 hPa | 0 mm | - | - | - |
| 1777828499 | 8.89° C | 56% | 1009.1 hPa | 0 mm | - | - | - |
| 1777827298 | 8.89° C | 58% | 1009.1 hPa | 0 mm | - | - | - |
| 1777826096 | 8.89° C | 59% | 1009.5 hPa | 0 mm | - | - | - |
* Rain latest hour (hover to see other rain measurements)
** Current wind speed in m/s (hover to see current wind gust speed)